Meteorología y climatología de Navarra
Datos de la estación - Meteo Navarra

Estación de Goizueta GN

Altitud 142 m.


Datos desde el 11/10/2018 hasta el 12/10/2018 en horario solar
Los datos son PROVISIONALES

Anterior Página 1 de 1 Siguiente Descargar: Formato para Excel 2000 o superior   Formato csv   Formato para OpenOffice Calc
Fecha Temperatura Humedad relativa Radiación global Insolación Precipitación Velocidad viento 10 m Velocidad viento 10 m Dirección viento 10 m
ºC % W/m² s l/m² m/s km/h º
11/10/2018 0:00 18.3 69 - - - - 0.0 - - - - - -
11/10/2018 0:10 17.1 76 - - - - 0.0 - - - - - -
11/10/2018 0:20 17.4 74 - - - - 0.0 - - - - - -
11/10/2018 0:30 18.8 66 - - - - 0.0 - - - - - -
11/10/2018 0:40 19.8 60 - - - - 0.0 - - - - - -
11/10/2018 0:50 20.1 59 - - - - 0.0 - - - - - -
11/10/2018 1:00 20.5 57 - - - - 0.0 - - - - - -
11/10/2018 1:10 20.4 58 - - - - 0.0 - - - - - -
11/10/2018 1:20 20.2 59 - - - - 0.0 - - - - - -
11/10/2018 1:30 20.5 58 - - - - 0.0 - - - - - -
11/10/2018 1:40 20.6 58 - - - - 0.0 - - - - - -
11/10/2018 1:50 20.3 59 - - - - 0.0 - - - - - -
11/10/2018 2:00 20.4 59 - - - - 0.0 - - - - - -
11/10/2018 2:10 20.4 59 - - - - 0.0 - - - - - -
11/10/2018 2:20 20.6 58 - - - - 0.0 - - - - - -
11/10/2018 2:30 20.7 58 - - - - 0.0 - - - - - -
11/10/2018 2:40 20.5 59 - - - - 0.0 - - - - - -
11/10/2018 2:50 20.3 60 - - - - 0.0 - - - - - -
11/10/2018 3:00 20.6 59 - - - - 0.0 - - - - - -
11/10/2018 3:10 20.4 60 - - - - 0.0 - - - - - -
11/10/2018 3:20 20.2 61 - - - - 0.0 - - - - - -
11/10/2018 3:30 20.2 61 - - - - 0.0 - - - - - -
11/10/2018 3:40 20.2 61 - - - - 0.0 - - - - - -
11/10/2018 3:50 20.2 61 - - - - 0.0 - - - - - -
11/10/2018 4:00 20.1 61 - - - - 0.0 - - - - - -
11/10/2018 4:10 20.0 62 - - - - 0.0 - - - - - -
11/10/2018 4:20 20.0 62 - - - - 0.0 - - - - - -
11/10/2018 4:30 19.7 63 - - - - 0.0 - - - - - -
11/10/2018 4:40 19.9 63 - - - - 0.0 - - - - - -
11/10/2018 4:50 19.8 63 - - - - 0.0 - - - - - -
11/10/2018 5:00 20.1 61 - - - - 0.0 - - - - - -
11/10/2018 5:10 20.3 61 - - - - 0.0 - - - - - -
11/10/2018 5:20 20.2 61 - - - - 0.0 - - - - - -
11/10/2018 5:30 20.1 62 - - - - 0.0 - - - - - -
11/10/2018 5:40 19.7 64 - - - - 0.0 - - - - - -
11/10/2018 5:50 19.8 63 - - - - 0.0 - - - - - -
11/10/2018 6:00 19.8 64 - - - - 0.0 - - - - - -
11/10/2018 6:10 19.6 65 - - - - 0.0 - - - - - -
11/10/2018 6:20 19.3 66 - - - - 0.0 - - - - - -
11/10/2018 6:30 19.0 68 - - - - 0.0 - - - - - -
11/10/2018 6:40 19.9 63 - - - - 0.0 - - - - - -
11/10/2018 6:50 20.1 63 - - - - 0.0 - - - - - -
11/10/2018 7:00 19.9 63 - - - - 0.0 - - - - - -
11/10/2018 7:10 19.8 65 - - - - 0.0 - - - - - -
11/10/2018 7:20 19.7 65 - - - - 0.0 - - - - - -
11/10/2018 7:30 19.5 66 - - - - 0.0 - - - - - -
11/10/2018 7:40 19.8 65 - - - - 0.0 - - - - - -
11/10/2018 7:50 19.8 65 - - - - 0.0 - - - - - -
11/10/2018 8:00 19.9 65 - - - - 0.0 - - - - - -
11/10/2018 8:10 20.1 64 - - - - 0.0 - - - - - -
11/10/2018 8:20 20.1 65 - - - - 0.0 - - - - - -
11/10/2018 8:30 20.2 64 - - - - 0.0 - - - - - -
11/10/2018 8:40 20.2 65 - - - - 0.0 - - - - - -
11/10/2018 8:50 20.5 64 - - - - 0.0 - - - - - -
11/10/2018 9:00 20.5 64 - - - - 0.0 - - - - - -
11/10/2018 9:10 20.8 63 - - - - 0.0 - - - - - -
11/10/2018 9:20 21.4 62 - - - - 0.0 - - - - - -
11/10/2018 9:30 22.2 59 - - - - 0.0 - - - - - -
11/10/2018 9:40 22.2 59 - - - - 0.0 - - - - - -
11/10/2018 9:50 22.1 60 - - - - 0.0 - - - - - -
11/10/2018 10:00 22.5 59 - - - - 0.0 - - - - - -
11/10/2018 10:10 22.9 58 - - - - 0.0 - - - - - -
11/10/2018 10:20 22.7 58 - - - - 0.0 - - - - - -
11/10/2018 10:30 22.8 58 - - - - 0.0 - - - - - -
11/10/2018 10:40 22.9 59 - - - - 0.0 - - - - - -
11/10/2018 10:50 22.7 58 - - - - 0.0 - - - - - -
11/10/2018 11:00 23.1 57 - - - - 0.0 - - - - - -
11/10/2018 11:10 23.2 56 - - - - 0.0 - - - - - -
11/10/2018 11:20 23.8 55 - - - - 0.0 - - - - - -
11/10/2018 11:30 24.1 54 - - - - 0.0 - - - - - -
11/10/2018 11:40 24.1 54 - - - - 0.0 - - - - - -
11/10/2018 11:50 22.0 51 - - - - 0.0 - - - - - -
11/10/2018 12:00 23.9 55 - - - - 0.0 - - - - - -
11/10/2018 12:10 23.9 54 - - - - 0.0 - - - - - -
11/10/2018 12:20 24.0 54 - - - - 0.0 - - - - - -
11/10/2018 12:30 24.0 55 - - - - 0.0 - - - - - -
11/10/2018 12:40 23.7 56 - - - - 0.0 - - - - - -
11/10/2018 12:50 23.4 57 - - - - 0.0 - - - - - -
11/10/2018 13:00 23.8 56 - - - - 0.0 - - - - - -
11/10/2018 13:10 24.2 54 - - - - 0.0 - - - - - -
11/10/2018 13:20 24.3 54 - - - - 0.0 - - - - - -
11/10/2018 13:30 24.8 53 - - - - 0.0 - - - - - -
11/10/2018 13:40 24.8 53 - - - - 0.0 - - - - - -
11/10/2018 13:50 25.3 53 - - - - 0.0 - - - - - -
11/10/2018 14:00 25.6 52 - - - - 0.0 - - - - - -
11/10/2018 14:10 25.5 52 - - - - 0.0 - - - - - -
11/10/2018 14:20 26.2 50 - - - - 0.0 - - - - - -
11/10/2018 14:30 25.6 52 - - - - 0.0 - - - - - -
11/10/2018 14:40 24.4 55 - - - - 0.0 - - - - - -
11/10/2018 14:50 24.0 57 - - - - 0.0 - - - - - -
11/10/2018 15:00 23.1 65 - - - - 0.0 - - - - - -
11/10/2018 15:10 21.8 76 - - - - 0.2 - - - - - -
11/10/2018 15:20 20.6 87 - - - - 0.2 - - - - - -
11/10/2018 15:30 19.7 93 - - - - 0.1 - - - - - -
11/10/2018 15:40 19.3 95 - - - - 0.1 - - - - - -
11/10/2018 15:50 19.1 96 - - - - 0.4 - - - - - -
11/10/2018 16:00 19.0 97 - - - - 0.0 - - - - - -
11/10/2018 16:10 19.1 97 - - - - 0.0 - - - - - -
11/10/2018 16:20 19.1 97 - - - - 0.0 - - - - - -
11/10/2018 16:30 19.0 97 - - - - 0.0 - - - - - -
11/10/2018 16:40 18.9 98 - - - - 0.0 - - - - - -
11/10/2018 16:50 18.7 97 - - - - 0.0 - - - - - -
11/10/2018 17:00 18.6 94 - - - - 0.0 - - - - - -
11/10/2018 17:10 18.5 92 - - - - 0.0 - - - - - -
11/10/2018 17:20 18.2 92 - - - - 0.0 - - - - - -
11/10/2018 17:30 18.0 93 - - - - 0.0 - - - - - -
11/10/2018 17:40 17.8 94 - - - - 0.0 - - - - - -
11/10/2018 17:50 17.7 95 - - - - 0.0 - - - - - -
11/10/2018 18:00 17.6 96 - - - - 0.0 - - - - - -
11/10/2018 18:10 17.5 96 - - - - 0.0 - - - - - -
11/10/2018 18:20 17.4 96 - - - - 0.0 - - - - - -
11/10/2018 18:30 17.3 97 - - - - 0.0 - - - - - -
11/10/2018 18:40 17.3 97 - - - - 0.0 - - - - - -
11/10/2018 18:50 17.2 97 - - - - 0.0 - - - - - -
11/10/2018 19:00 17.2 97 - - - - 0.0 - - - - - -
11/10/2018 19:10 17.2 98 - - - - 0.0 - - - - - -
11/10/2018 19:20 17.2 98 - - - - 0.0 - - - - - -
11/10/2018 19:30 17.2 98 - - - - 0.0 - - - - - -
11/10/2018 19:40 17.2 98 - - - - 0.0 - - - - - -
11/10/2018 19:50 17.1 98 - - - - 0.0 - - - - - -
11/10/2018 20:00 17.0 98 - - - - 0.0 - - - - - -
11/10/2018 20:10 16.9 99 - - - - 0.0 - - - - - -
11/10/2018 20:20 16.9 99 - - - - 0.0 - - - - - -
11/10/2018 20:30 16.8 99 - - - - 0.0 - - - - - -
11/10/2018 20:40 16.7 99 - - - - 0.0 - - - - - -
11/10/2018 20:50 16.6 99 - - - - 0.0 - - - - - -
11/10/2018 21:00 16.4 99 - - - - 0.0 - - - - - -
11/10/2018 21:10 16.1 99 - - - - 0.0 - - - - - -
11/10/2018 21:20 16.0 99 - - - - 0.0 - - - - - -
11/10/2018 21:30 15.7 99 - - - - 0.0 - - - - - -
11/10/2018 21:40 15.6 99 - - - - 0.0 - - - - - -
11/10/2018 21:50 15.6 100 - - - - 0.0 - - - - - -
11/10/2018 22:00 15.5 100 - - - - 0.0 - - - - - -
11/10/2018 22:10 15.3 100 - - - - 0.0 - - - - - -
11/10/2018 22:20 15.0 100 - - - - 0.0 - - - - - -
11/10/2018 22:30 15.2 100 - - - - 0.0 - - - - - -
11/10/2018 22:40 15.0 100 - - - - 0.0 - - - - - -
11/10/2018 22:50 14.8 100 - - - - 0.0 - - - - - -
11/10/2018 23:00 14.7 100 - - - - 0.0 - - - - - -
11/10/2018 23:10 14.7 100 - - - - 0.0 - - - - - -
11/10/2018 23:20 14.5 100 - - - - 0.0 - - - - - -
11/10/2018 23:30 14.6 100 - - - - 0.0 - - - - - -
11/10/2018 23:40 14.6 100 - - - - 0.0 - - - - - -
11/10/2018 23:50 14.5 100 - - - - 0.0 - - - - - -
Anterior Página 1 de 1 Siguiente

NOTA: Tipo de datos según el color:
   - Valores diarios o 10 minutos correctos
   - Valores diarios calculados a partir de un número de datos 10 minutos menor que 144 y mayor que 120, o de un número de datos semihorarios menor que 48 y mayor que 40 (caso de las estaciones de Riegos de Navarra y del MARM)
   - Valores diez minutos estimados


Contacto        Enlaces        Aviso legal